BXS1010 LEZL-EKCH

Flight info

Callsign BXS1010
Flight time N/A
Altitude 34000
Route HIJ M30 PARKA N858 DGO L176 LUSEM DCT LULUT DCT ADABI DCT BOKNO UN858 VANAD UN874 ARSAF DCT EGOZE DCT CMB DCT VEKIN DCT ADUTO/N0443F350 DCT VICOT DCT DOSUR P729 TUDLO
Aircraft A321/M-SDE3FGHIRWY/LB1

Departure

Time 2026-05-04 16:05
Airport Seville Airport (LEZL)

Arrival

Time N/A
Airport Copenhagen Kastrup Airport (EKCH)
Time Latitude Longitude Altitude Speed Heading
2026-05-04 15:44 37.42300 -5.89839 93 ft 0 kts 315°
2026-05-04 15:56 37.42297 -5.89835 93 ft 2 kts 314°
2026-05-04 15:57 37.42285 -5.89820 95 ft 2 kts 315°
2026-05-04 15:57 37.42273 -5.89806 95 ft 2 kts 317°
2026-05-04 15:57 37.42261 -5.89792 92 ft 2 kts 326°
2026-05-04 15:57 37.42246 -5.89783 93 ft 2 kts 33°
2026-05-04 15:58 37.42239 -5.89791 92 ft 1 kts 46°
2026-05-04 15:58 37.42238 -5.89791 92 ft 0 kts 46°
2026-05-04 15:59 37.42241 -5.89788 94 ft 3 kts 46°
2026-05-04 15:59 37.42259 -5.89743 93 ft 8 kts 86°
2026-05-04 15:59 37.42239 -5.89689 95 ft 7 kts 128°
2026-05-04 16:00 37.42191 -5.89625 95 ft 13 kts 135°
2026-05-04 16:00 37.42121 -5.89536 98 ft 14 kts 133°
2026-05-04 16:00 37.42037 -5.89427 98 ft 22 kts 135°
2026-05-04 16:00 37.41983 -5.89288 100 ft 16 kts 95°
2026-05-04 16:01 37.41983 -5.89154 100 ft 17 kts 89°
2026-05-04 16:01 37.41984 -5.88977 101 ft 24 kts 89°
2026-05-04 16:01 37.41985 -5.88740 103 ft 31 kts 91°
2026-05-04 16:01 37.41987 -5.88473 104 ft 30 kts 88°
2026-05-04 16:02 37.41986 -5.88228 106 ft 27 kts 90°
2026-05-04 16:02 37.41987 -5.87994 107 ft 25 kts 89°
2026-05-04 16:02 37.41989 -5.87573 109 ft 24 kts 94°
2026-05-04 16:03 37.41910 -5.87433 114 ft 15 kts 162°
2026-05-04 16:03 37.41822 -5.87433 115 ft 10 kts 208°
2026-05-04 16:03 37.41801 -5.87503 117 ft 0 kts 269°
2026-05-04 16:03 37.41801 -5.87512 117 ft 2 kts 269°
2026-05-04 16:04 37.41801 -5.87534 116 ft 3 kts 269°
2026-05-04 16:04 37.41798 -5.88123 107 ft 90 kts 270°
2026-05-04 16:04 37.41795 -5.89139 101 ft 140 kts 269°
2026-05-04 16:05 37.41787 -5.90534 159 ft 173 kts 269°
2026-05-04 16:05 37.41796 -5.92017 810 ft 168 kts 276°
2026-05-04 16:05 37.43156 -5.94353 2017 ft 174 kts 317°
2026-05-04 16:06 37.44125 -5.95397 2215 ft 195 kts 318°
2026-05-04 16:06 37.47260 -5.98843 3109 ft 247 kts 317°
2026-05-04 16:07 37.48983 -6.00805 4076 ft 252 kts 316°
2026-05-04 16:07 37.52908 -6.05388 6215 ft 261 kts 316°
2026-05-04 16:08 37.54238 -6.06958 6857 ft 264 kts 315°
2026-05-04 16:08 37.58724 -6.11078 8739 ft 281 kts 348°
2026-05-04 16:09 37.62459 -6.09589 9882 ft 302 kts 39°
2026-05-04 16:09 37.65761 -6.05919 10376 ft 333 kts 39°
2026-05-04 16:10 37.69411 -6.01829 10635 ft 368 kts 39°
2026-05-04 16:11 37.75326 -5.95236 11962 ft 384 kts 39°
2026-05-04 16:11 37.77346 -5.92992 12467 ft 388 kts 39°
2026-05-04 16:12 37.83513 -5.86113 13907 ft 399 kts 39°
2026-05-04 16:12 37.89825 -5.79054 15192 ft 408 kts 39°
2026-05-04 16:13 37.94110 -5.74256 15996 ft 414 kts 38°
2026-05-04 16:13 37.98455 -5.69385 16787 ft 419 kts 38°
2026-05-04 16:14 38.02845 -5.64446 17525 ft 425 kts 38°
2026-05-04 16:14 38.07289 -5.59440 18230 ft 429 kts 38°
2026-05-04 16:15 38.14044 -5.51818 19125 ft 436 kts 38°
2026-05-04 16:16 38.18599 -5.46666 19724 ft 440 kts 38°
2026-05-04 16:16 38.25508 -5.38840 20635 ft 447 kts 38°
2026-05-04 16:17 38.30202 -5.33506 21251 ft 452 kts 38°
2026-05-04 16:18 38.37274 -5.25447 22217 ft 458 kts 38°
2026-05-04 16:18 38.39658 -5.22726 22530 ft 461 kts 38°
2026-05-04 16:19 38.47012 -5.14734 23436 ft 463 kts 28°
2026-05-04 16:19 38.52830 -5.11489 23943 ft 453 kts
2026-05-04 16:20 38.62082 -5.11112 24688 ft 443 kts 349°
2026-05-04 16:20 38.68257 -5.11747 25186 ft 447 kts 349°
2026-05-04 16:21 38.76543 -5.12590 25862 ft 451 kts 349°
2026-05-04 16:22 38.82866 -5.13232 26338 ft 454 kts 349°
2026-05-04 16:22 38.92363 -5.14195 27049 ft 459 kts 349°
2026-05-04 16:23 39.02030 -5.12687 27644 ft 485 kts 16°
2026-05-04 16:24 39.13829 -5.03555 28313 ft 499 kts 28°
2026-05-04 16:25 39.19683 -4.98721 28773 ft 499 kts 28°
2026-05-04 16:26 39.31342 -4.89027 29589 ft 499 kts 28°
2026-05-04 16:26 39.40088 -4.81719 30160 ft 499 kts 28°
2026-05-04 16:27 39.45905 -4.76857 30520 ft 498 kts 28°
2026-05-04 16:28 39.54630 -4.69548 31055 ft 498 kts 28°
2026-05-04 16:28 39.63366 -4.62201 31608 ft 497 kts 28°
2026-05-04 16:29 39.74946 -4.52434 32311 ft 496 kts 29°
2026-05-04 16:30 39.83613 -4.45085 32851 ft 495 kts 29°
2026-05-04 16:31 39.89383 -4.40187 33192 ft 495 kts 29°
2026-05-04 16:31 39.98102 -4.33053 33708 ft 489 kts 21°
2026-05-04 16:32 40.07328 -4.27429 33943 ft 486 kts 20°
2026-05-04 16:33 40.19572 -4.19938 33946 ft 486 kts 20°
2026-05-04 16:34 40.28785 -4.14285 33943 ft 486 kts 21°
2026-05-04 16:35 40.46708 -4.03256 33961 ft 486 kts 21°
2026-05-04 16:36 40.55889 -3.97566 33967 ft 486 kts 21°
2026-05-04 16:37 40.65066 -3.91870 33971 ft 486 kts 21°
2026-05-04 16:38 40.77308 -3.84257 33967 ft 487 kts 21°
2026-05-04 16:39 40.92627 -3.74680 33979 ft 487 kts 21°
2026-05-04 16:40 41.04880 -3.66965 33973 ft 488 kts 21°
2026-05-04 16:41 41.20319 -3.57460 33971 ft 487 kts 18°
2026-05-04 16:43 41.36063 -3.49120 33973 ft 488 kts 18°
2026-05-04 16:43 41.45473 -3.43930 33973 ft 488 kts 19°
2026-05-04 16:45 41.64330 -3.33501 33963 ft 490 kts 19°
2026-05-04 16:46 41.80088 -3.24764 33970 ft 491 kts 19°
2026-05-04 16:47 41.92717 -3.17725 33972 ft 492 kts 19°
2026-05-04 16:48 42.05393 -3.10626 33974 ft 494 kts 19°
2026-05-04 16:49 42.18091 -3.03500 33974 ft 495 kts 20°
2026-05-04 16:50 42.30830 -2.96291 33978 ft 495 kts 20°
2026-05-04 16:51 42.40373 -2.90892 33989 ft 495 kts 20°
2026-05-04 16:51 42.46455 -2.86522 33992 ft 499 kts 35°
2026-05-04 16:52 42.51727 -2.80389 33985 ft 499 kts 41°
2026-05-04 16:53 42.59512 -2.70993 34001 ft 500 kts 41°
2026-05-04 16:54 42.69879 -2.58447 34003 ft 499 kts 41°
2026-05-04 16:55 42.84563 -2.40567 33994 ft 499 kts 41°
2026-05-04 16:56 42.97493 -2.24718 34000 ft 501 kts 41°
2026-05-04 16:57 43.05265 -2.15149 33998 ft 502 kts 42°
2026-05-04 16:58 43.15627 -2.02318 34006 ft 503 kts 42°
2026-05-04 17:00 43.31251 -1.83175 34025 ft 502 kts 35°
2026-05-04 17:01 43.46080 -1.70528 34002 ft 502 kts 34°
2026-05-04 17:02 43.57682 -1.59734 34009 ft 504 kts 32°
2026-05-04 17:03 43.66485 -1.51798 34001 ft 504 kts 32°
2026-05-04 17:03 43.75325 -1.43758 34007 ft 506 kts 33°
2026-05-04 17:04 43.87079 -1.32969 34002 ft 507 kts 33°
2026-05-04 17:05 43.98845 -1.22147 34000 ft 507 kts 33°
2026-05-04 17:06 44.07653 -1.14011 33999 ft 506 kts 33°
2026-05-04 17:07 44.15455 -1.06771 33979 ft 506 kts 33°
2026-05-04 17:07 44.20364 -1.02210 33978 ft 506 kts 33°
2026-05-04 17:08 44.27767 -0.95261 33975 ft 506 kts 33°
2026-05-04 17:09 44.33623 -0.89806 33967 ft 506 kts 33°
2026-05-04 17:09 44.39509 -0.84426 33967 ft 505 kts 28°
2026-05-04 17:10 44.55561 -0.74405 33973 ft 504 kts 21°
2026-05-04 17:11 44.61979 -0.70475 33980 ft 504 kts 21°
2026-05-04 17:12 44.71624 -0.64559 33979 ft 504 kts 21°
2026-05-04 17:13 44.87695 -0.54644 33971 ft 504 kts 22°
2026-05-04 17:14 45.00542 -0.46662 33967 ft 505 kts 22°
2026-05-04 17:15 45.10192 -0.40652 33952 ft 505 kts 22°
2026-05-04 17:16 45.23067 -0.32608 33948 ft 505 kts 22°
2026-05-04 17:17 45.35475 -0.24802 33945 ft 505 kts 22°
2026-05-04 17:18 45.48366 -0.16645 33940 ft 506 kts 22°
2026-05-04 17:19 45.61231 -0.08485 33944 ft 506 kts 23°
2026-05-04 17:20 45.74096 -0.00269 33942 ft 506 kts 23°
2026-05-04 17:20 45.83734 0.05911 33941 ft 506 kts 23°
2026-05-04 17:21 45.96576 0.14190 33947 ft 506 kts 23°
2026-05-04 17:22 46.02993 0.18342 33949 ft 506 kts 23°
2026-05-04 17:23 46.15831 0.26660 33947 ft 506 kts 23°
2026-05-04 17:24 46.25451 0.32922 33944 ft 506 kts 23°
2026-05-04 17:25 46.38268 0.41330 33947 ft 506 kts 23°
2026-05-04 17:26 46.51121 0.49785 33953 ft 505 kts 23°
2026-05-04 17:26 46.61037 0.54708 33955 ft 501 kts 10°
2026-05-04 17:27 46.67835 0.56922 33953 ft 501 kts 10°
2026-05-04 17:28 46.80280 0.61037 33950 ft 501 kts 11°
2026-05-04 17:29 47.00643 0.67826 33931 ft 495 kts 12°
2026-05-04 17:31 47.17635 0.70501 33927 ft 491 kts
2026-05-04 17:32 47.34685 0.72296 33949 ft 491 kts
2026-05-04 17:33 47.48304 0.73816 33956 ft 491 kts